User: anonymous   Login
Location: STAR School
(35.3054°N, 111.2976°W)
Time: 10:02:07
(UTC-07:00)
Language:

KAITUO 1B - Orbit

View from above orbital plane
View from above orbital plane
View from above satellite
View from above satellite

Ground track
Ground track

The orbit data is extracted from the following two-line orbital elements,

1 40912U 15049P   19317.18918279  .00001122  00000-0  55392-4 0  9995
2 40912  97.4507 322.6593 0015589  24.3287  36.7120 15.19869178229719
Epoch (UTC): 13 November 2019 04:32:25
Eccentricity: 0.0015589
inclination: 97.4507°
perigee height: 495 km
apogee height: 517 km
right ascension of ascending node: 322.6593°
argument of perigee: 24.3287°
revolutions per day: 15.19869178
mean anomaly at epoch: 36.7120°
orbit number at epoch: 22971

The dashed part of the orbit path shows where the satellite is in the earth's shadow,  

DLR